CAPE
0 1 1 0 0 0 0 0 0 0 0 1 1 0 0 0 0 0 0 0 0 0 4 0 0 0 0 0 40 1 0 0 0 0 0 0 0 0 0 0 0 0 0 0 0 0 3 0 0 0 2 0 0 0
0 0 0 0 0 0 0 0 0 0 0 1 0 0 0 0 0 0 0 0 0 0 0 0 0 0 0 0 0 0 0 1 0 0 0 0 0 0 0 0 0 0 0 8 0 52 1 0 0 0 0 0 0 0
0 0 0 0 0 0 0 0 0 0 0 0 0 0 0 0 0 0 0 0 0 0 0 0 0 0 0 0 0 0 0 0 0 0 0 0 0 0 0 0 2 0 0 0 0 0 0 0 0 0 0 0 0 0
1 0 0 0 0 0 0 0 0 0 0 0 0 0 0 0 0 0 0 0 0 0 0 0 0 0 0 0 0 0 0 0 0 0 0 0 0 0 0 6 0 9 0 0 0 0 0 0 0 0 0 0 0 0
0 1 1 0 0 0 0 0 0 0 0 0 0 0 0 0 0 0 0 0 0 0 0 0 0 0 0 0 0 0 0 0 0 0 0 0 0 0 0 0 0 0 0 0 0 1 0 0 0 0 0 0 0 0
0 0 1 1 0 0 1 0 0 0 0 0 0 0 0 0 0 0 0 0 0 0 0 0 0 0 0 0 0 0 0 0 0 0 0 0 0 0 0 0 0 0 0 0 0 0 0 0 0 0 0 0 0 0
0 0 0 1 0 0 1 1 0 0 0 0 0 0 0 0 0 0 0 0 0 0 0 0 0 0 0 0 0 0 0 0 0 0 0 0 0 0 0 0 0 0 0 0 0 0 0 0 0 0 0 0 0 0
0 0 0 2 0 0 0 1 0 0 0 0 0 0 0 0 0 0 0 0 0 0 0 0 0 0 0 0 0 0 0 0 0 0 0 0 0 0 0 0 0 0 0 0 0 0 0 1 0 0 0 0 0 0
0 0 2 1 0 0 0 0 0 0 0 0 0 0 0 0 0 0 0 0 0 0 0 0 0 1 0 0 0 0 0 0 0 0 0 0 0 0 0 0 0 0 0 0 0 0 0 2 0 0 0 0 0 0
0 4 0 0 0 0 0 0 0 0 0 0 0 0 1 0 0 0 0 0 0 0 0 0 0 0 0 0 0 0 0 0 6 3 0 0 0 3 0 0 0 0 0 0 0 0 0 0 0 0 0 0 0 0
0 1 2 0 0 0 1 0 0 0 0 0 8 11 0 0 0 1 11 2 9 1 0 0 0 0 0 0 0 0 17 22 4 21 0 4 4 9 0 0 0 0 0 0 0 5 7 2 7 0 0 0 0 0
1 0 0 0 0 0 1 0 0 0 3 0 0 0 0 0 13 12 8 12 0 11 1 0 0 0 0 0 3 8 0 10 5 16 2 2 80 16 0 0 0 0 0 0 2 12 22 21 14 0 0 0 0 0
1 0 0 0 0 0 0 1 0 0 0 0 2 14 13 17 3 2 5 5 14 11 16 0 0 0 0 0 7 19 11 22 19 11 8 31 32 15 3 0 0 0 0 0 1 6 0 0 0 0 0 0 0 0
2 0 0 0 0 0 0 0 0 0 0 13 27 1 5 5 4 7 11 28 15 16 27 18 1 6 2 2 14 10 13 18 16 11 23 70 27 14 16 30 17 2 2 1 0 0 0 0 0 0 0 0 0 0
1 1 0 0 0 0 0 0 0 0 1 26 27 2 12 12 17 16 10 5 3 18 33 32 19 24 9 13 13 16 15 6 10 19 59 93 21 10 28 33 39 42 51 57 47 12 0 0 0 0 0 0 0 0
3 1 0 0 0 0 0 1 0 0 3 7 16 9 30 16 28 11 10 23 17 18 44 47 22 14 5 20 10 23 10 12 30 26 55 58 28 42 62 68 55 91 113 107 82 66 24 1 1 1 6 0 0 1
1 2 1 0 0 0 1 0 0 0 1 1 15 17 7 16 18 20 25 9 8 44 46 50 7 6 29 11 10 13 8 14 24 30 49 101 83 17 51 54 64 130 116 99 95 103 114 69 2 0 0 3 1 2
6 9 1 8 0 1 1 0 0 0 1 0 5 30 32 16 23 19 11 16 21 25 19 47 43 37 5 11 11 8 22 30 31 38 40 44 61 91 91 77 136 187 159 126 143 91 122 152 117 20 0 7 6 12
8 4 1 2 0 1 0 1 0 1 1 24 48 47 23 30 7 4 16 23 1 0 1 3 22 18 10 24 33 29 29 35 28 31 33 51 93 93 86 63 60 72 93 80 83 90 92 158 175 163 82 21 1 10
0 0 1 2 2 0 0 0 1 0 12 30 61 66 27 25 15 0 1 7 8 24 18 9 16 42 41 31 16 10 11 2 1 0 0 7 27 71 78 74 72 40 35 47 45 28 86 105 200 201 148 78 52 11
0 3 4 4 0 0 22 3 4 18 13 23 35 30 36 3 0 0 0 0 0 2 5 14 23 23 12 0 0 0 0 0 0 0 0 0 0 5 28 51 52 39 35 47 23 44 87 124 221 261 258 186 107 75
3 0 1 1 0 0 7 1 1 18 14 10 10 13 34 25 17 13 15 6 6 13 15 13 7 5 1 0 0 1 0 0 0 0 0 0 0 3 12 19 26 27 25 14 30 22 11 100 261 150 88 72 75 68
0 0 0 0 0 2 0 2 9 16 29 11 19 29 24 15 20 3 11 17 12 15 20 23 12 9 7 3 5 15 25 34 26 17 27 30 20 32 21 21 17 22 34 24 7 21 37 16 37 64 108 62 56 55
0 0 0 8 3 4 0 8 1 10 13 14 12 8 6 7 14 16 10 8 12 14 11 2 6 18 22 32 51 60 75 83 55 29 44 30 25 43 35 21 25 30 31 36 28 35 54 24 53 72 10 4 232 85
1 2 0 0 1 1 7 10 11 13 12 10 9 3 15 6 5 7 9 30 9 2 15 21 7 15 31 29 33 50 121 121 122 88 45 75 51 37 34 26 10 26 20 22 22 21 19 47 63 91 49 1 46 305
1 0 1 6 5 17 15 9 3 7 7 6 9 9 9 22 15 20 21 34 26 13 9 8 77 74 61 48 23 26 54 51 73 40 53 79 70 65 47 30 33 32 17 6 18 18 22 34 36 31 12 2 5 223
1 6 3 0 3 4 7 1 12 14 10 11 18 14 13 18 22 22 45 37 13 0 0 115 128 97 111 75 68 46 20 22 42 48 55 93 100 107 102 90 111 104 82 58 72 61 45 30 33 49 28 111 197 187
5 8 9 10 4 4 21 20 9 12 27 36 40 37 36 43 24 4 29 6 0 1 61 91 88 86 105 107 81 79 83 48 29 31 36 19 78 11 83 5 0 40 70 45 82 67 69 69 133 189 234 246 173 108
1 6 13 5 14 15 15 17 11 6 8 44 40 15 18 14 11 8 8 64 160 158 134 167 103 49 79 40 30 25 44 53 50 29 23 60 63 35 29 81 70 64 55 36 20 94 78 142 178 203 193 229 251 166
10 7 16 9 1 7 10 16 13 15 5 10 2 3 20 66 96 163 166 151 162 103 72 16 6 42 16 26 42 83 82 71 53 88 48 43 92 156 106 104 117 105 55 87 19 0 0 0 0 5 6 32 75 49
9 7 9 3 1 3 13 20 16 6 3 11 18 19 16 36 18 0 0 0 0 0 3 1 23 28 10 34 35 24 40 69 59 1 0 1 24 30 58 99 118 113 92 102 106 6 0 1 2 0 0 0 0 1
6 3 13 6 8 12 8 17 12 15 49 49 62 38 42 29 1 1 0 0 0 0 0 0 12 4 12 19 24 17 14 7 3 0 0 0 0 0 0 4 18 58 107 98 129 131 18 0 4 13 0 0 3 5
9 9 3 18 15 21 14 22 7 33 47 15 3 0 0 0 2 0 2 1 0 0 5 21 6 0 0 0 0 0 0 9 2 0 0 0 0 0 2 20 11 44 92 275 170 25 19 18 14 39 17 9 17 32
CIN
-0 -0 -0 -0 -0 -0 -0 -0 -0 -0 -0 -1 -1 -0 -0 -0 -0 -0 -0 -0 -0 -0 -70 -0 -0 -0 -0 -0 -10 -16 -0 -0 -0 -0 -0 -0 -0 -0 -0 -0 -0 -0 -0 -0 -0 -0 -3 -0 -0 -0 -27 -0 -0 -0
-0 -0 -0 -0 -0 -0 -0 -0 -0 -0 -2 -2 -2 -0 -0 -0 -0 -0 -0 -0 -0 -0 -17 -0 -0 -0 -0 -0 -0 -0 -0 -9 -0 -0 -0 -0 -0 -0 -0 -0 -0 -0 -0 -61 -0 -58 -79 -0 -0 -0 -0 -0 -0 -0
-0 -0 -0 -0 -0 -3 -0 -0 -0 -0 -0 -4 -4 -0 -0 -0 -0 -0 -0 -0 -0 -0 -0 -0 -0 -0 -0 -0 -0 -0 -0 -0 -0 -0 -0 -0 -0 -0 -0 -0 -1 -0 -0 -0 -0 -0 -0 -0 -0 -0 -0 -0 -0 -0
-0 -0 -0 -0 -0 -0 -0 -0 -0 -0 -1 -4 -1 -0 -0 -0 -0 -0 -0 -0 -0 -0 -0 -0 -0 -0 -0 -0 -0 -0 -0 -0 -0 -0 -0 -0 -0 -0 -0 -3 -0 -27 -0 -0 -0 -0 -0 -0 -0 -0 -0 -0 -0 -0
-0 -0 -0 -0 -0 -0 -0 -0 -0 -9 -6 -0 -0 -0 -0 -0 -0 -0 -0 -0 -0 -0 -0 -0 -0 -0 -0 -0 -0 -0 -0 -0 -0 -0 -0 -0 -0 -0 -0 -0 -0 -0 -0 -0 -0 -2 -0 -0 -0 -0 -0 -0 -0 -0
-0 -0 -0 -0 -0 -0 -0 -0 -0 -0 -9 -2 -6 -0 -0 -0 -0 -0 -0 -0 -0 -0 -0 -0 -0 -0 -0 -0 -0 -0 -0 -0 -0 -0 -0 -0 -0 -0 -0 -0 -0 -0 -0 -0 -0 -0 -0 -0 -0 -0 -0 -0 -0 -0
-0 -0 -0 -0 -0 -0 -0 -0 -0 -0 -0 -1 -0 -0 -0 -0 -0 -0 -0 -0 -0 -0 -0 -0 -0 -0 -0 -0 -0 -0 -0 -0 -0 -0 -0 -0 -0 -0 -0 -0 -0 -0 -0 -0 -0 -0 -0 -0 -0 -0 -0 -0 -0 -0
-0 -0 -0 -0 -0 -0 -0 -0 -0 -0 -0 -0 -0 -0 -0 -0 -0 -0 -0 -0 -0 -0 -0 -0 -0 -0 -0 -0 -0 -0 -0 -0 -0 -0 -0 -0 -0 -0 -0 -0 -0 -0 -0 -0 -0 -0 -0 -0 -0 -0 -0 -0 -0 -0
-0 -0 -0 -0 -0 -0 -0 -0 -0 -0 -0 -0 -0 -0 -0 -0 -0 -0 -0 -0 -0 -0 -0 -0 -0 -0 -0 -0 -0 -0 -0 -0 -0 -0 -0 -0 -0 -0 -0 -0 -0 -0 -0 -0 -0 -0 -0 -1 -0 -0 -0 -0 -0 -0
-0 -0 -0 -0 -0 -0 -0 -0 -0 -0 -0 -0 -0 -0 -3 -0 -0 -0 -0 -0 -0 -0 -0 -0 -0 -0 -0 -0 -0 -0 -0 -0 -1 -4 -0 -0 -0 -2 -0 -0 -0 -0 -0 -0 -0 -0 -0 -0 -0 -0 -0 -0 -0 -0
-0 -0 -1 -0 -0 -0 -0 -0 -0 -0 -0 -0 -0 -1 -0 -0 -0 -0 -0 -0 -1 -1 -0 -0 -0 -0 -0 -0 -0 -0 -2 -3 -1 -2 -0 -2 -1 -8 -0 -0 -0 -0 -0 -0 -0 -0 -1 -0 -1 -0 -0 -0 -0 -0
-5 -0 -0 -0 -0 -0 -0 -0 -0 -0 -0 -0 -0 -0 -0 -0 -1 -1 -2 -1 -0 -2 -0 -0 -0 -0 -0 -0 -1 -3 -0 -3 -1 -2 -0 -0 -70 -44 -0 -0 -0 -0 -0 -0 -1 -1 -0 -1 -2 -0 -0 -0 -0 -0
-10 -0 -0 -0 -0 -0 -0 -0 -0 -0 -0 -0 -0 -0 -0 -0 -2 -0 -1 -1 -1 -1 -1 -0 -0 -0 -0 -0 -1 -5 -0 -1 -1 -2 -1 -1 -21 -29 -27 -0 -0 -0 -0 -0 -0 -0 -0 -0 -0 -0 -0 -0 -0 -0
-10 -14 -0 -0 -0 -0 -0 -0 -0 -0 -0 -1 -0 -0 -2 -1 -5 -2 -4 -9 -12 -1 -1 -2 -2 -4 -1 -0 -0 -6 -6 -5 -1 -2 -2 -7 -25 -35 -14 -13 -10 -1 -1 -0 -0 -0 -0 -0 -0 -0 -0 -0 -0 -0
-11 -9 -0 -0 -0 -0 -0 -0 -0 -0 -1 -1 -1 -4 -2 -2 -1 -2 -3 -5 -1 -2 -1 -1 -5 -0 -2 -3 -2 -2 -1 -1 -1 -1 -12 -3 -23 -4 -4 -6 -4 -8 -8 -4 -1 -0 -0 -0 -0 -0 -0 -0 -0 -0
-10 -5 -0 -0 -0 -0 -0 -0 -0 -0 -4 -0 -1 -2 -1 -1 -2 -2 -1 -1 -1 -2 -1 -2 -7 -3 -17 -3 -4 -1 -1 -1 -3 -4 -4 -12 -11 -1 -2 -0 -5 -0 -0 -0 -0 -1 -1 -1 -0 -2 -11 -0 -0 -1
-12 -0 -6 -0 -0 -0 -0 -0 -0 -0 -0 -29 -2 -2 -2 -7 -6 -10 -7 -7 -3 -1 -1 -0 -7 -5 -2 -2 -1 -1 -2 -10 -12 -3 -8 -8 -12 -7 -0 -2 -1 -0 -0 -1 -1 -1 -1 -2 -1 -0 -4 -25 -9 -1
-1 -1 -7 -1 -0 -0 -0 -0 -0 -0 -5 -3 -3 -1 -1 -2 -2 -2 -5 -1 -0 -0 -10 -1 -1 -1 -6 -2 -6 -7 -2 -2 -4 -3 -5 -3 -1 -3 -1 -1 -1 -0 -1 -1 -1 -1 -1 -1 -1 -2 -0 -15 -20 -7
-1 -2 -0 -0 -0 -0 -0 -0 -0 -4 -0 -11 -1 -1 -1 -1 -1 -6 -0 -1 -0 -0 -17 -31 -7 -1 -7 -3 -2 -2 -3 -2 -3 -3 -3 -2 -2 -1 -2 -2 -7 -1 -1 -1 -1 -1 -2 -5 -5 -2 -2 -1 -19 -5
-0 -0 -0 -0 -0 -0 -2 -0 -1 -0 -1 -1 -1 -0 -2 -1 -1 -0 -0 -1 -2 -1 -1 -4 -4 -1 -2 -3 -5 -3 -3 -1 -1 -0 -0 -3 -4 -4 -1 -4 -7 -7 -4 -6 -5 -7 -4 -2 -2 -2 -1 -1 -1 -5
-0 -0 -0 -0 -0 -0 -0 -4 -0 -1 -2 -2 -1 -1 -1 -0 -0 -0 -0 -0 -0 -1 -2 -2 -2 -4 -13 -0 -0 -0 -0 -0 -0 -0 -0 -0 -0 -1 -4 -14 -10 -27 -23 -2 -18 -1 -9 -1 -6 -5 -0 -3 -2 -1
-0 -0 -2 -0 -0 -0 -1 -9 -1 -0 -1 -1 -1 -1 -0 -1 -0 -1 -1 -1 -0 -1 -3 -2 -3 -1 -0 -0 -0 -0 -0 -0 -0 -0 -0 -0 -1 -1 -1 -2 -3 -3 -6 -10 -11 -7 -13 -3 -12 -2 -4 -24 -6 -1
-6 -0 -0 -12 -0 -0 -0 -0 -2 -2 -0 -2 -1 -0 -0 -0 -1 -1 -1 -2 -1 -2 -0 -0 -1 -4 -6 -7 -5 -3 -6 -7 -2 -1 -1 -2 -1 -1 -3 -2 -7 -3 -2 -3 -18 -6 -7 -20 -35 -8 -11 -30 -24 -17
-0 -10 -0 -0 -0 -0 -0 -0 -12 -2 -3 -0 -0 -1 -3 -6 -1 -1 -1 -1 -2 -4 -2 -19 -1 -0 -0 -1 -1 -1 -1 -2 -1 -1 -2 -2 -3 -1 -1 -2 -1 -2 -2 -2 -5 -4 -5 -10 -12 -1 -13 -0 -1 -21
-0 -1 -0 -0 -0 -0 -0 -6 -0 -0 -1 -0 -1 -3 -0 -0 -2 -2 -1 -1 -3 -13 -1 -0 -4 -6 -1 -1 -1 -1 -1 -1 -1 -2 -1 -2 -2 -1 -2 -2 -5 -3 -2 -4 -2 -16 -7 -7 -2 -1 -18 -4 -51 -1
-0 -0 -0 -0 -2 -0 -0 -0 -1 -1 -2 -1 -0 -1 -0 -0 -0 -0 -1 -2 -1 -1 -2 -2 -1 -1 -1 -0 -7 -4 -2 -3 -1 -1 -3 -1 -2 -0 -1 -2 -1 -2 -3 -12 -1 -5 -3 -2 -2 -2 -7 -10 -22 -2
-0 -0 -0 -0 -0 -0 -13 -1 -6 -0 -2 -2 -3 -9 -0 -0 -1 -10 -5 -0 -1 -0 -1 -1 -1 -0 -1 -1 -2 -1 -5 -3 -2 -2 -3 -1 -2 -3 -2 -1 -1 -1 -3 -2 -5 -5 -4 -8 -5 -5 -5 -2 -1 -11
-0 -0 -0 -0 -0 -0 -0 -0 -0 -0 -0 -5 -2 -1 -0 -2 -1 -7 -0 -1 -0 -12 -1 -2 -2 -2 -2 -2 -2 -5 -1 -3 -3 -4 -5 -12 -3 -4 -6 -25 -0 -72 -9 -11 -9 -5 -7 -12 -2 -1 -1 -1 -8 -8
-2 -1 -0 -0 -0 -0 -1 -0 -1 -1 -1 -1 -2 -0 -0 -1 -0 -1 -4 -4 -7 -6 -1 -3 -16 -10 -1 -9 -27 -22 -21 -5 -2 -15 -33 -11 -1 -4 -9 -3 -34 -20 -12 -8 -36 -22 -22 -16 -8 -7 -11 -3 -6 -6
-0 -1 -0 -0 -3 -1 -0 -1 -1 -1 -1 -0 -1 -1 -3 -4 -18 -20 -4 -1 -1 -1 -1 -2 -14 -2 -4 -1 -0 -0 -4 -13 -18 -1 -7 -3 -3 -2 -4 -3 -3 -4 -12 -167 -2 -0 -0 -0 -0 -10 -5 -28 -14 -6
-0 -1 -0 -1 -7 -5 -2 -0 -1 -0 -1 -0 -0 -2 -2 -11 -40 -0 -0 -1 -0 -0 -3 -23 -3 -3 -17 -1 -4 -13 -4 -4 -2 -7 -0 -3 -23 -25 -10 -3 -3 -2 -4 -12 -3 -4 -0 -3 -2 -0 -0 -0 -1 -2
-0 -4 -1 -0 -1 -2 -1 -1 -0 -0 -1 -8 -5 -12 -9 -16 -0 -3 -0 -0 -0 -0 -0 -0 -2 -10 -11 -2 -3 -2 -7 -14 -43 -0 -0 -0 -0 -0 -3 -20 -8 -4 -4 -4 -5 -17 -247 -0 -4 -4 -0 -0 -3 -1
-0 -1 -2 -0 -0 -0 -1 -1 -11 -3 -2 -0 -0 -0 -0 -0 -0 -0 -3 -5 -0 -0 -1 -2 -7 -0 -0 -0 -0 -0 -1 -2 -5 -0 -0 -0 -0 -0 -24 -30 -49 -51 -27 -6 -43 -110 -57 -36 -13 -6 -7 -13 -2 -3
Wind_Speed
23 23 22 22 24 26 27 28 27 26 25 24 23 23 23 22 22 20 20 18 19 24 22 18 18 18 18 20 21 15 20 19 24 27 30 30 26 29 27 31 24 24 19 15 15 13 12 7 12 18 14 12 14 15
23 23 24 25 27 27 29 28 27 26 26 25 23 23 23 23 22 21 19 19 21 23 22 23 24 23 21 20 22 20 22 21 21 22 23 26 24 26 26 30 13 24 22 21 19 15 11 7 17 12 13 12 15 16
25 25 25 25 27 28 28 28 27 27 26 25 25 24 23 23 22 21 21 21 22 22 26 25 24 18 20 21 21 25 20 21 21 22 25 23 24 25 27 24 21 17 20 19 18 13 13 10 14 13 14 14 15 16
26 26 27 27 27 27 27 28 28 28 27 26 25 24 24 23 23 22 21 21 21 21 21 11 17 19 18 18 21 22 23 22 23 21 27 27 27 18 27 20 21 18 12 15 18 16 15 12 12 12 13 14 14 16
28 27 27 27 27 27 27 28 29 29 28 27 26 25 24 24 24 24 24 20 18 18 20 19 16 17 16 16 19 20 22 22 20 20 20 24 23 21 23 23 22 15 16 16 20 15 14 19 8 9 11 13 14 16
28 28 27 27 27 27 27 28 28 27 27 26 26 25 25 24 24 21 18 15 17 19 20 21 14 16 16 14 15 16 18 20 22 21 21 20 17 19 20 19 15 18 14 19 19 16 13 16 9 10 10 12 13 14
29 29 28 27 26 26 26 26 25 25 24 25 25 26 25 25 23 21 20 17 20 20 19 21 19 14 17 15 17 18 16 18 20 19 19 22 15 14 23 22 17 14 14 14 14 12 15 13 11 10 10 11 13 13
29 29 28 26 26 26 25 25 24 24 24 24 26 26 26 26 25 22 18 18 19 21 21 22 19 17 12 16 19 16 19 16 15 19 16 18 11 16 18 17 18 17 15 13 9 11 19 10 11 9 10 11 11 12
27 27 26 25 26 26 25 25 24 23 24 24 25 27 22 18 18 15 14 15 18 20 20 18 21 14 12 19 15 14 18 18 13 19 17 16 15 11 17 14 12 13 13 13 10 10 13 9 8 9 10 11 11 12
26 24 24 24 25 25 25 24 24 24 24 24 20 17 18 16 15 15 16 15 13 13 19 22 20 19 14 11 15 18 15 21 21 15 16 19 10 19 11 14 17 16 11 13 8 8 8 8 8 9 10 11 11 11
26 26 24 23 24 24 24 23 23 23 21 16 18 18 16 15 17 17 19 17 12 18 19 23 24 20 14 17 17 18 19 18 21 13 17 16 14 6 12 14 16 16 12 9 7 9 8 8 8 9 10 10 10 10
26 26 25 23 23 23 23 22 22 19 18 19 20 20 18 17 18 19 19 17 18 20 15 20 22 25 16 19 20 16 21 17 21 15 17 19 11 11 13 16 17 16 11 7 7 9 10 10 10 10 11 10 9 8
26 26 26 24 23 22 22 21 20 22 22 18 18 17 17 17 20 21 19 20 20 17 18 20 18 18 17 18 18 17 20 20 18 19 18 18 11 15 18 19 17 14 12 10 8 10 10 10 12 11 11 11 9 8
25 26 26 25 23 22 21 21 19 19 18 19 18 21 20 18 21 20 22 16 16 18 16 16 12 14 14 12 16 19 18 18 21 21 20 11 14 17 18 17 16 15 12 10 9 10 10 11 12 13 13 11 9 8
24 25 26 26 24 23 22 20 17 16 18 19 19 22 23 23 20 20 21 21 17 18 16 14 15 15 12 14 16 17 16 19 17 17 14 13 15 17 17 17 16 15 13 12 11 11 12 12 13 14 13 12 10 10
22 24 27 27 22 20 20 14 14 16 18 20 20 22 22 22 21 17 18 16 15 16 15 14 16 16 16 17 16 15 17 18 17 16 17 16 16 16 17 18 19 17 15 15 14 14 14 14 14 15 15 14 13 12
18 19 16 18 19 18 17 14 14 17 18 20 21 22 22 20 18 16 15 16 15 16 15 15 15 15 15 18 17 19 18 19 19 20 18 19 20 22 21 20 18 15 15 17 18 18 18 17 15 14 14 15 15 14
18 15 17 17 13 13 13 15 16 19 22 20 21 20 19 19 18 18 17 16 17 14 16 16 19 16 17 18 16 17 20 21 21 22 24 25 22 22 20 19 17 15 16 18 21 22 19 20 16 15 14 14 15 14
15 16 17 14 15 15 15 16 16 20 21 22 19 18 18 19 19 19 18 16 16 17 17 18 20 20 23 25 26 26 26 25 25 24 25 24 20 21 21 21 19 18 20 20 22 21 23 19 19 17 16 15 15 13
20 20 19 13 16 15 16 17 17 19 21 18 17 18 19 20 18 21 22 21 21 20 20 20 25 24 24 28 27 27 27 29 30 32 32 31 27 21 18 20 23 24 20 22 26 25 22 20 22 20 17 16 15 16
14 14 10 15 17 17 17 14 15 17 18 17 16 17 17 15 18 18 20 19 21 22 24 25 27 27 28 29 29 29 29 28 27 28 30 30 28 29 25 18 16 19 20 24 28 27 21 23 21 18 17 14 13 14
13 13 14 16 16 18 17 16 18 16 16 16 15 15 15 15 16 15 16 17 19 19 20 22 24 26 27 27 26 25 27 28 27 27 25 23 23 22 22 22 20 19 20 16 14 20 23 23 14 16 18 18 17 16
13 15 15 17 18 17 16 16 17 16 15 14 13 15 14 14 14 13 15 15 15 17 19 20 22 24 25 27 27 26 22 22 22 21 23 24 26 23 21 22 22 21 17 18 15 11 15 23 16 16 19 14 12 12
16 16 17 17 17 18 15 17 16 18 17 16 15 14 14 13 12 15 16 13 14 17 19 21 24 25 24 23 23 23 20 19 20 22 21 22 22 25 22 20 20 14 9 9 12 9 7 18 29 21 17 13 7 5
15 14 17 19 18 17 17 17 17 17 16 15 14 14 13 12 14 15 14 13 15 19 21 20 22 24 25 25 25 25 16 20 21 24 26 27 29 25 22 17 16 14 11 7 6 4 3 3 4 16 18 25 15 12
16 17 17 18 18 19 18 16 15 12 13 12 13 14 13 15 15 15 14 13 15 18 21 22 23 24 25 24 26 26 22 21 25 28 28 26 28 28 26 25 23 19 15 10 9 7 4 7 14 19 20 24 29 14
17 17 18 18 16 16 16 17 16 16 14 15 15 15 16 17 16 15 12 15 19 21 22 23 24 26 26 28 28 27 29 29 28 29 29 25 19 19 19 21 25 25 23 19 19 18 11 9 7 9 14 23 31 14
17 17 18 18 18 18 16 17 17 16 15 14 15 17 16 15 14 14 15 19 21 22 23 24 25 26 29 30 30 30 29 27 23 20 21 22 15 18 15 23 20 9 18 19 21 20 15 12 12 16 26 23 24 21
17 17 15 17 17 17 19 18 17 16 16 15 15 14 13 13 16 19 19 20 20 22 23 25 26 27 27 28 29 30 32 31 34 34 36 36 22 21 24 22 16 16 26 18 14 16 16 16 22 29 31 32 30 30
16 18 15 17 16 16 15 17 16 14 16 16 16 15 14 13 16 18 19 20 20 22 23 24 25 27 29 30 30 31 30 29 33 35 34 36 32 30 33 33 33 36 31 29 20 18 13 16 19 20 21 21 24 29
16 17 16 16 16 19 18 17 17 17 16 16 16 17 14 11 14 17 19 21 22 22 24 25 25 28 31 30 31 32 33 34 34 35 35 37 37 37 37 36 37 39 39 35 26 22 9 8 14 21 22 23 25 22
20 20 17 17 15 14 15 17 15 13 11 12 13 14 14 13 15 18 22 25 23 24 25 25 27 30 30 32 33 34 35 33 36 37 39 39 38 39 39 39 39 39 40 40 37 13 16 11 7 14 20 13 6 7
20 20 20 19 18 17 17 16 12 10 10 12 13 13 15 14 17 22 23 24 23 25 27 29 30 31 33 35 36 37 36 36 36 37 40 41 42 41 37 35 35 36 36 37 34 32 29 32 31 22 25 30 16 21
Wind_Direction
305 306 308 309 311 306 301 289 286 283 282 280 285 294 298 300 303 300 271 292 278 258 269 278 280 271 272 267 271 288 279 285 277 270 265 265 279 268 274 259 280 279 290 295 292 291 288 339 332 321 336 353 344 340
303 304 303 301 300 299 292 283 281 278 276 273 273 285 294 297 299 297 280 297 286 266 270 272 267 268 272 277 277 279 278 277 283 274 277 270 277 275 282 263 296 278 284 292 301 311 331 357 328 344 346 344 342 342
296 298 300 301 300 296 288 283 279 277 274 272 273 276 286 292 295 297 284 286 282 272 262 257 262 278 274 276 282 264 284 281 285 283 270 278 277 278 266 279 288 300 295 293 309 320 322 325 331 339 341 343 346 345
292 294 297 295 292 294 288 281 279 275 274 271 271 271 280 285 286 286 278 283 277 270 258 289 286 279 279 285 280 281 275 283 278 288 266 269 267 295 268 297 290 315 325 305 304 314 319 321 330 339 344 346 348 348
290 290 291 292 289 288 288 280 274 272 271 268 269 271 276 278 278 273 262 277 285 276 266 272 291 284 285 288 279 281 273 276 283 282 285 275 281 296 287 292 292 307 306 306 306 330 322 324 334 341 344 344 346 347
285 285 287 288 289 286 286 284 279 272 272 270 270 271 274 277 279 275 285 301 287 286 270 261 295 284 282 291 289 290 285 281 273 278 283 289 304 298 296 300 315 310 316 307 308 325 333 334 347 345 346 347 352 352
281 281 283 286 285 286 285 286 285 282 280 277 274 274 274 277 276 268 270 287 282 276 270 263 277 296 278 283 280 280 290 284 281 287 289 284 307 310 289 292 319 327 326 327 329 340 333 338 338 347 351 355 351 354
282 277 280 284 284 284 285 285 286 285 283 282 280 277 275 273 265 273 288 290 285 268 267 261 274 287 290 279 270 285 280 297 300 286 303 298 317 312 307 315 311 316 328 336 340 334 327 346 349 352 354 354 352 350
285 280 282 284 282 283 284 283 281 284 285 284 280 277 289 293 289 299 312 303 287 278 276 284 270 298 302 271 287 299 287 290 309 293 298 307 306 324 316 318 337 337 339 338 339 340 340 348 351 351 350 347 344 347
285 284 284 285 282 281 281 282 280 282 282 284 291 295 288 298 305 307 301 303 307 303 281 273 276 280 291 292 288 280 296 277 283 298 304 300 184 303 332 327 322 329 340 340 349 345 348 348 347 347 345 345 345 347
282 280 282 285 283 282 280 279 281 280 283 293 288 289 305 309 293 291 284 288 303 293 283 270 267 274 292 282 277 275 278 285 283 310 307 317 326 351 340 334 331 330 334 338 344 345 347 345 344 344 344 345 345 347
281 276 275 280 283 280 280 278 276 279 287 289 287 290 293 290 285 282 279 285 285 278 294 270 263 246 283 270 266 291 277 295 288 314 315 313 340 347 344 336 335 338 343 346 345 344 345 345 344 343 342 341 343 346
279 274 270 272 277 279 278 275 276 273 277 285 287 285 287 284 274 271 272 274 273 276 274 264 270 266 277 273 282 293 288 290 308 305 312 319 350 341 335 334 338 341 342 341 340 343 346 346 345 343 340 338 339 340
277 271 266 266 270 273 276 273 273 273 276 275 274 270 269 276 270 268 263 282 274 270 275 272 286 283 288 290 291 289 297 302 299 302 309 344 345 345 342 343 345 346 348 348 344 343 344 341 340 339 335 336 336 333
275 269 262 259 262 266 267 267 271 274 276 271 272 267 264 266 275 273 272 272 280 272 277 281 288 291 295 295 296 298 306 299 305 313 342 355 349 346 344 346 346 344 345 343 341 340 337 335 334 333 333 332 330 327
276 270 259 251 256 262 266 269 272 276 277 274 271 269 273 274 270 280 276 278 288 279 283 289 290 293 290 295 297 297 300 304 314 327 342 347 345 343 340 338 335 338 339 338 339 335 331 327 327 328 330 326 322 319
276 269 273 247 248 258 260 266 268 270 274 274 270 269 274 278 284 285 285 289 295 280 278 285 291 292 302 295 295 296 301 314 318 326 338 337 330 328 329 330 332 334 334 334 333 329 325 323 320 319 319 325 318 317
268 272 263 248 239 249 260 262 267 272 270 273 269 273 272 279 282 281 281 290 286 288 283 283 291 289 296 297 298 312 309 315 322 322 320 322 328 327 327 327 326 324 326 327 325 323 320 318 312 308 309 312 321 317
270 263 258 233 236 252 257 261 272 269 272 271 270 281 278 279 283 287 289 294 290 291 288 287 285 286 287 291 297 305 310 316 321 323 319 324 325 324 322 318 314 313 317 321 323 323 321 319 313 310 309 309 309 311
251 249 248 224 238 253 257 272 268 275 268 275 280 279 280 280 286 281 281 283 282 281 282 282 280 284 291 297 307 307 309 310 310 311 312 312 320 324 319 319 314 318 322 319 317 320 317 318 317 311 311 310 309 310
254 244 231 232 244 253 259 265 265 271 279 284 289 284 288 290 288 286 283 287 282 278 281 283 286 291 297 300 303 305 306 310 312 312 314 318 324 323 327 328 318 309 309 315 317 317 316 312 313 312 313 317 319 323
242 236 235 235 247 251 256 261 269 276 278 289 288 286 289 293 294 296 298 290 289 290 291 293 296 298 300 303 305 308 308 309 312 316 321 325 327 330 333 334 331 324 319 312 308 309 313 315 312 303 309 315 324 326
228 230 235 237 247 247 254 261 260 266 276 286 294 288 293 297 303 310 302 299 304 306 304 305 308 307 306 305 305 309 318 319 321 327 327 329 329 332 334 337 340 338 335 329 321 305 318 310 307 303 305 308 314 330
226 231 238 243 245 245 257 251 262 262 272 276 282 289 297 304 309 298 300 309 308 309 308 307 304 304 313 319 317 318 324 326 324 326 331 335 337 334 340 346 350 354 355 354 349 343 331 315 293 304 307 206 296 296
229 236 238 234 241 242 245 249 255 261 268 276 283 293 304 315 306 305 305 312 317 316 312 314 315 314 316 315 319 317 335 329 328 324 323 325 324 336 342 352 359 6 15 20 19 8 323 324 275 313 305 301 221 318
227 232 234 234 234 238 242 249 259 273 280 287 292 300 305 301 305 306 311 318 319 319 315 317 317 315 319 321 313 316 330 330 321 311 312 327 329 330 333 338 343 353 3 9 359 350 330 339 325 310 306 300 276 306
230 233 233 233 238 239 247 244 254 261 273 279 284 287 289 292 301 313 329 326 316 320 320 311 304 304 315 319 318 317 303 304 309 312 316 329 342 345 344 342 339 341 346 346 341 335 328 326 322 325 312 306 295 322
229 232 227 224 226 229 235 235 242 254 271 282 268 261 269 285 300 300 316 309 302 301 301 298 301 311 314 309 303 296 311 320 328 333 332 334 338 346 342 338 345 245 345 349 345 340 332 321 323 320 307 313 307 301
215 224 228 220 224 225 222 229 234 241 246 250 258 279 298 291 281 287 313 310 328 311 308 313 315 305 323 325 317 322 318 320 317 315 308 308 329 337 339 340 343 346 335 343 352 352 346 330 315 300 297 294 293 287
215 209 227 228 233 238 241 233 243 263 250 258 271 276 301 338 339 334 323 317 315 313 312 317 315 323 328 334 334 336 337 337 328 329 318 303 296 328 323 319 318 310 322 320 341 349 351 340 329 325 319 314 304 292
220 216 221 226 237 222 228 234 233 240 251 259 262 245 263 6 347 335 331 327 324 320 322 325 320 335 328 336 343 342 333 335 335 333 330 326 322 319 318 314 305 300 293 310 319 324 342 338 327 315 320 309 304 312
204 203 217 224 237 243 233 222 241 265 281 327 319 303 307 336 328 319 330 328 323 328 327 323 323 328 325 337 338 337 339 345 341 339 335 331 328 323 316 309 305 301 295 295 303 318 314 317 289 309 307 313 303 302
192 195 200 204 208 219 221 226 256 278 307 319 315 317 334 341 346 330 330 333 327 321 319 337 341 340 345 344 342 340 340 343 344 345 341 336 331 329 328 324 321 318 309 301 308 314 314 311 296 310 306 297 300 305